Flag for Belgium Weather past 2 weeks in Mechelen, Belgium

Now
48 °F

Clear.


Feels Like: 46 °F
Forecast: 47 / 61 °F
Wind: 6 mph from Southwest

Location: Brussels National Airport

Current Time: May 29, 2015 at 3:00:50 AM

Latest Report: May 29, 2015 at 2:20 AM


Visibility: 10 mi

Pressure: 29.95 "Hg

Humidity: 58%

Dew point: 34 °F

Location of MechelenLocation

Historic Weather in Mechelen — Graph

°F

Mechelen temperature yesterday

Maximum temperature yesterday: 63 °F (at 2:20 PM)
Minimum temperature yesterday: 55 °F (at 1:20 AM)
Average temperature yesterday: 58 °F

Past Weeks' High & Low Weather Summary

 TemperatureHumidityPressure
High68 °F (May 22, 3:20 PM)100% (May 16, 3:20 PM)30.36 "Hg (May 16, 3:20 PM)
Low39 °F (May 14, 5:20 AM)11% (May 23, 6:50 AM)29.68 "Hg (May 18, 7:50 PM)
Average54 °F70%30.08 "Hg
* Reported May 14 1:20 AM — May 29 1:50 AM, Mechelen, Weather by CustomWeather, © 2015

Note: Actual official high and low records may vary slightly from our data, if they occured in-between our weather recording intervals... More about our weather records

Advertising

Mechelen weather history for previous 24 hours

 ConditionsComfort  
Time TempWeatherWind HumidityBarometerVisibility
1:50 AM
Fri, May 29
50 °FPassing clouds.6 mph58%29.95 "HgN/A
1:20 AM52 °FPassing clouds.7 mph58%29.98 "HgN/A
11:50 PM
Thu, May 28
55 °FPassing clouds.12 mph59%29.98 "HgN/A
11:20 PM55 °FPassing clouds.6 mph55%29.98 "HgN/A
10:50 PM55 °FPassing clouds.2 mph55%29.98 "HgN/A
10:20 PM55 °FPartly sunny.1 mph59%29.98 "HgN/A
9:50 PM55 °FPartly sunny.No wind59%29.98 "HgN/A
9:20 PM55 °FPartly sunny.1 mph59%29.98 "HgN/A
8:50 PM57 °FPartly sunny.1 mph51%29.98 "HgN/A
8:20 PM55 °FPartly sunny.6 mph63%29.95 "HgN/A
7:50 PM57 °FPassing clouds.6 mph59%29.95 "HgN/A
7:20 PM59 °FSunny.6 mph55%29.95 "Hg10 mi
6:50 PM59 °FPartly sunny.7 mph55%29.95 "HgN/A
6:20 PM63 °FPartly sunny.16 mph45%29.95 "HgN/A
5:50 PM63 °FPartly sunny.15 mph52%29.95 "HgN/A
5:20 PM63 °FPartly sunny.16 mph52%29.95 "HgN/A
4:50 PM63 °FPartly sunny.17 mph52%29.95 "HgN/A
4:20 PM63 °FBroken clouds.20 mph52%29.95 "HgN/A
3:50 PM61 °FSprinkles. Partly sunny.14 mph59%29.95 "HgN/A
3:20 PM63 °FPartly sunny.21 mph56%29.95 "HgN/A
2:50 PM63 °FScattered clouds.18 mph59%29.95 "HgN/A
2:20 PM63 °FScattered clouds.16 mph64%29.95 "HgN/A
1:50 PM61 °FScattered clouds.14 mph68%29.98 "HgN/A
1:20 PM61 °FScattered clouds.14 mph68%29.98 "HgN/A
12:50 PM59 °FScattered clouds.15 mph68%29.98 "HgN/A
12:20 PM57 °FScattered clouds.15 mphN/A29.98 "HgN/A
11:50 AM59 °FPassing clouds.12 mph72%29.98 "HgN/A
11:20 AM57 °FPartly sunny.13 mph77%29.98 "HgN/A
10:50 AM57 °FSprinkles. Partly sunny.17 mph67%29.98 "HgN/A
10:20 AM59 °FScattered clouds.13 mph63%29.98 "HgN/A
9:50 AM57 °FPartly sunny.14 mph63%29.98 "HgN/A
9:20 AM57 °FPartly sunny.12 mph67%29.98 "HgN/A
8:50 AM55 °FPartly sunny.12 mph77%29.98 "HgN/A
8:20 AM55 °FSunny.13 mph77%29.98 "Hg10 mi
7:50 AM55 °FSunny.13 mph77%29.98 "Hg10 mi
7:20 AM55 °FSunny.10 mph72%29.98 "Hg10 mi
6:50 AM55 °FSunny.13 mph72%29.98 "Hg10 mi
6:20 AM55 °FClear.13 mph67%29.98 "Hg10 mi
5:50 AM55 °FClear.13 mph67%29.98 "Hg10 mi
5:20 AM55 °FClear.14 mph67%29.98 "Hg10 mi
4:50 AM55 °FPassing clouds.12 mph67%29.98 "HgN/A
4:20 AM57 °FClear.14 mph63%29.98 "Hg10 mi
3:50 AM57 °FClear.9 mph59%29.98 "Hg10 mi
3:20 AM57 °FClear.9 mph59%29.98 "Hg10 mi
Weather by CustomWeather, © 2015

See weather overviewHow to use our weather pages